Location: Unspecified
(51.6250°N, 0.8230°E)
Time: 00:34:46
(UTC+01:00)

Okean 3 - Visible Passes

Search period start: 05 August 2020 00:00
Search period end: 15 August 2020 00:00
Orbit: 576 x 601 km, 82.5° (Epoch: 04 August)

Date Brightness Start Highest point End Pass type
(mag) Time Alt. Az. Time Alt. Az. Time Alt. Az.
05 Aug 4.7 00:51:37 10° NNW 00:55:20 30° W 00:56:03 28° WSW visible
05 Aug 4.1 23:21:57 10° N 23:26:04 45° ENE 23:27:16 35° ESE visible
06 Aug 5.2 00:59:45 10° NW 01:03:02 22° W 01:03:47 21° WSW visible
06 Aug 3.6 23:29:40 10° N 23:33:56 64° ENE 23:35:00 46° SE visible
07 Aug 5.6 01:08:04 10° NW 01:10:41 16° W 01:11:31 15° W visible
07 Aug 5.7 22:01:51 10° NNE 22:03:51 13° ENE 22:05:51 10° E visible
07 Aug 3.4 23:37:28 10° N 23:41:47 89° E 23:42:45 54° S visible
08 Aug 5.9 01:16:51 10° WNW 01:18:18 12° W 01:19:15 11° W visible
08 Aug 5.4 22:09:01 10° NNE 22:11:53 17° ENE 22:13:59 13° E visible
08 Aug 3.7 23:45:19 10° NNW 23:49:35 65° W 23:50:31 49° SSW visible
09 Aug 5.0 22:16:27 10° NNE 22:19:53 23° ENE 22:21:46 17° ESE visible
09 Aug 4.2 23:53:14 10° NNW 23:57:21 45° W 23:58:17 39° SW visible
10 Aug 4.6 22:24:00 10° N 22:27:50 30° ENE 22:29:33 23° ESE visible
11 Aug 4.7 00:01:14 10° NNW 00:05:05 32° W 00:06:04 29° WSW visible
11 Aug 4.1 22:31:40 10° N 22:35:45 41° ENE 22:37:20 29° ESE visible
12 Aug 5.2 00:09:19 10° NW 00:12:47 24° W 00:13:52 21° WSW visible
12 Aug 3.7 22:39:23 10° N 22:43:38 58° ENE 22:45:09 36° SE visible
13 Aug 5.6 00:17:35 10° NW 00:20:26 18° W 00:21:40 16° WSW visible
13 Aug 5.7 21:11:46 10° NE 21:13:29 12° ENE 21:15:12 10° E visible
13 Aug 3.4 22:47:09 10° N 22:51:29 82° ENE 22:52:58 41° SSE visible
14 Aug 6.0 00:26:10 10° NW 00:28:04 13° W 00:29:29 11° WSW visible
14 Aug 5.4 21:18:49 10° NNE 21:21:32 16° ENE 21:24:14 10° ESE visible
14 Aug 3.6 22:55:00 10° NNW 22:59:17 71° W 23:00:48 39° S visible
